Skip Page Navigation
NASA JPL Caltech
NASA Logo - Jet Propulsion Laboratory + View the NASA Portal
+ Center for Near-Earth Object Studies
JPL Home Earth Solar System Stars & Galaxies Technology
JPL Solar System Dynamics
BODIES ORBITS EPHEMERIDES TOOLS PHYSICAL DATA DISCOVERY FAQ SITE MAP
JPL Small-Body Database Browser
Search: [ help ]  
214604 (2006 RW6)
Classification: Main-belt Asteroid          SPK-ID: 2214604
Ephemeris | Orbit Diagram | Orbital Elements | Mission Design | Physical Parameters | Discovery Circumstances ]

[ show orbit diagram ]
Orbital Elements at Epoch 2459000.5 (2020-May-31.0) TDB
Reference: JPL 17 (heliocentric ecliptic J2000)
 Element Value Uncertainty (1-sigma)   Units 
e .2633400409141021 4.3341e-08  
a 2.33645428145939 1.3471e-08 au
q 1.721172315385945 1.0349e-07 au
i 7.62255719036253 8.9644e-06 deg
node 201.5076759632688 3.9476e-05 deg
peri 102.7634849106293 4.3964e-05 deg
M 341.9742962630211 2.1117e-05 deg
tp 2459065.816677645633
(2020-Aug-04.31667765)
7.6863e-05 TDB
period 1304.470787689142
3.57
1.1281e-05
3.089e-08
d
yr
n .2759739837775415 2.3867e-09 deg/d
Q 2.951736247532834 1.7018e-08 au
  Orbit Determination Parameters
   # obs. used (total)      327  
   data-arc span      10058 days (27.54 yr)  
   first obs. used      1992-11-18  
   last obs. used      2020-06-02  
   planetary ephem.      DE431  
   SB-pert. ephem.      SB431-N16  
   condition code      0  
   norm. resid. RMS      .5847  
   source      ORB  
   producer      Otto Matic  
   solution date      2020-Jun-24 04:13:44  

Additional Information
 Earth MOID = .72653 au 
 Jupiter MOID = 2.3633 au 
 T_jup = 3.508 
[ show covariance matrix ]

Ephemeris | Orbit Diagram | Orbital Elements | Mission Design | Physical Parameters | Discovery Circumstances ]

Physical Parameter Table
Parameter Symbol Value Units Sigma Reference Notes
absolute magnitude H 16.9   n/a MPO385932  

214604 (2006 RW6)          Discovered 2006-Sep-14 by CSS at Catalina
Reference: 20090509/Numbers.arcLast Updated: 2009-05-11

Alternate Designations
 2006 RW6 = 2002 LD59 
Ephemeris | Orbit Diagram | Orbital Elements | Mission Design | Physical Parameters | Discovery Circumstances ]
ABOUT SSD CREDITS/AWARDS PRIVACY/COPYRIGHT GLOSSARY LINKS
FirstGov 2020-Jul-07 13:32 UT
(server date/time)  
NASA Home Page
Site Manager:   Ryan S. Park
Webmaster  Alan B. Chamberlin